Theta_e
304 304 303 302 302 300 298 295 295 296 296 295 293 294 294 294 293 293 292 292 292 292 292 292 292 293 293 294 296 297 297 297 297 297 298 299 298 298 299 300 301 301 302
304 304 303 303 302 300 298 295 295 295 294 294 294 294 294 294 294 295 294 294 293 293 293 292 292 292 292 293 296 296 296 296 298 297 298 298 298 298 299 299 300 301 302
304 304 303 302 302 300 298 295 295 294 294 295 295 295 296 295 295 295 295 295 294 294 293 292 292 291 292 294 295 296 297 296 297 297 297 297 297 298 298 299 300 301 301
304 303 303 302 301 300 298 296 294 294 295 296 296 296 296 296 295 295 295 294 294 294 293 293 292 291 292 294 294 295 295 295 296 296 296 297 297 296 297 298 300 300 300
304 303 302 302 300 299 298 297 296 295 296 296 296 296 296 296 296 295 295 295 295 294 294 293 292 292 291 291 293 292 293 294 295 295 295 296 296 296 296 298 298 298 299
303 302 301 301 300 299 297 297 297 296 297 297 297 297 296 296 296 296 296 295 295 294 294 294 293 292 292 291 291 291 292 293 294 294 294 295 295 296 296 296 296 297 298
301 301 301 300 299 298 298 297 297 297 297 298 297 297 297 297 297 296 296 296 296 295 294 294 293 292 291 292 292 292 293 293 293 293 293 293 294 295 296 296 296 297 297
302 302 301 299 299 299 298 297 297 298 298 298 298 298 298 298 298 297 297 297 296 296 295 294 293 292 292 291 291 292 293 293 293 293 292 293 293 295 295 296 297 297 298
302 301 299 299 299 299 298 298 298 298 299 299 298 298 298 299 299 299 298 297 297 296 295 295 293 292 291 291 291 292 292 293 292 292 293 293 295 296 297 296 297 297 297
301 300 301 301 300 300 299 299 299 300 300 300 300 299 299 300 300 300 298 297 297 296 295 294 293 292 291 291 291 291 292 292 292 292 293 294 295 296 297 297 296 295 295
302 301 301 301 301 301 301 301 301 301 301 301 301 301 301 300 301 300 298 298 297 295 294 294 293 291 291 290 290 291 291 290 291 292 292 293 294 295 296 297 297 295 294
302 302 303 303 303 302 302 302 302 302 302 302 302 301 300 300 300 299 298 297 296 294 294 294 293 291 291 290 290 290 290 291 290 291 291 292 293 294 296 297 297 297 299
303 303 303 303 303 303 303 303 303 303 303 303 302 301 300 300 298 299 298 297 295 294 293 292 291 291 290 291 290 290 291 292 290 290 290 291 292 293 295 297 298 299 304
303 303 303 303 304 304 304 303 303 304 303 303 303 304 302 298 300 296 296 295 294 294 293 292 292 291 291 291 291 291 291 291 290 290 290 291 291 293 295 296 296 298 300
304 304 304 304 304 304 304 304 305 306 305 304 304 302 300 299 296 296 295 294 293 292 291 292 292 291 291 291 290 291 291 291 291 290 290 290 291 293 294 296 297 298 298
304 304 305 306 306 305 305 305 305 304 303 302 301 300 300 298 296 294 294 292 292 291 291 291 291 290 290 290 290 290 290 290 290 290 290 289 290 291 293 295 297 297 299
306 306 306 305 304 304 304 302 302 303 300 300 299 298 297 294 294 293 292 292 291 290 291 290 290 290 289 289 289 289 289 290 290 290 289 289 289 291 293 294 296 297 298
306 305 303 303 303 304 304 303 302 300 299 298 296 295 295 294 293 292 292 291 291 291 290 290 289 289 289 289 289 289 289 289 290 289 288 288 289 289 290 292 294 296 298
304 302 301 302 304 303 302 300 299 299 297 296 295 295 293 292 292 291 291 291 290 290 289 289 288 288 288 288 288 288 288 289 288 288 287 287 288 288 289 290 293 296 297
300 300 301 303 303 301 300 299 297 296 295 295 294 293 292 292 292 291 290 290 289 289 289 288 288 287 287 288 287 287 288 288 288 287 286 287 287 288 288 289 291 293 296
300 299 300 303 302 300 299 297 295 295 294 293 293 292 291 291 291 291 290 290 290 290 289 288 287 286 287 287 287 286 287 287 286 287 286 287 286 287 288 288 290 292 294
298 299 301 300 299 298 297 296 295 295 294 293 293 292 292 291 291 291 291 290 290 290 289 288 287 286 286 286 286 285 286 286 286 287 287 286 287 286 286 287 289 291 292
298 299 299 299 297 296 296 296 296 295 294 294 293 293 292 292 292 291 291 290 290 289 289 288 286 285 286 286 285 284 285 285 286 286 286 286 288 286 286 286 288 290 291
299 299 299 299 296 297 297 297 296 296 295 294 294 294 294 293 292 292 291 291 290 289 288 287 285 285 285 285 284 284 284 285 285 285 286 288 288 287 286 286 286 289 290
298 299 299 299 298 297 297 296 296 295 295 295 294 294 293 293 292 292 291 290 289 289 288 287 285 284 284 284 284 284 284 285 285 287 288 288 288 287 286 286 287 287 289
298 298 300 300 299 298 297 297 296 296 295 294 294 294 293 293 292 291 290 289 289 288 287 285 284 284 284 284 285 285 285 286 288 288 288 288 288 286 285 286 287 287 289
Wind_Speed
3 3 4 4 5 4 4 4 7 7 8 8 7 9 10 10 11 12 13 14 14 15 17 17 19 20 18 16 14 13 15 17 24 31 30 34 38 38 38 38 39 40 37
3 4 3 2 3 4 4 4 6 7 7 7 8 9 10 11 11 12 13 14 15 16 18 19 19 20 21 19 15 17 20 21 24 33 32 34 36 39 40 39 38 38 40
5 5 3 2 0 2 3 4 5 7 7 8 8 9 10 10 11 14 14 16 17 19 20 21 22 22 21 19 19 20 22 24 26 31 36 36 35 35 42 41 39 35 35
9 8 5 4 3 1 2 3 4 5 6 6 6 7 8 10 11 13 14 16 18 20 21 22 23 24 22 20 20 22 24 26 27 30 35 36 32 38 38 43 50 39 39
12 7 6 5 4 0 2 1 2 2 3 3 4 5 6 8 10 11 14 16 18 20 21 23 24 24 25 27 25 26 26 26 29 32 33 35 36 36 37 43 46 50 53
11 9 6 6 3 3 3 2 3 2 1 2 3 4 5 7 9 12 14 16 18 20 23 25 28 28 27 31 32 32 28 29 31 33 37 34 38 37 38 41 46 46 53
10 5 5 5 3 4 5 4 6 4 4 6 6 7 7 8 10 13 15 18 19 20 23 26 28 24 31 29 28 30 29 29 31 31 36 33 38 37 41 45 43 47 51
7 6 7 6 5 5 5 5 6 6 6 8 8 9 10 11 12 15 17 18 20 21 23 27 29 30 29 32 35 32 31 31 29 30 34 38 36 39 38 40 43 47 50
7 8 8 7 5 5 5 6 7 10 9 10 12 12 13 14 16 17 19 21 23 23 24 27 27 29 30 32 35 33 34 33 33 38 36 35 35 34 34 35 42 44 49
8 7 7 7 8 7 7 10 10 11 12 13 16 17 17 17 18 20 20 22 25 23 24 23 25 27 30 32 33 33 35 37 43 42 38 35 33 33 35 35 41 43 46
6 7 7 7 8 9 11 12 12 14 15 17 19 19 21 23 22 21 20 22 24 20 21 24 23 27 30 32 32 30 33 40 39 36 37 36 36 38 39 41 41 41 47
7 7 8 8 10 12 13 14 16 17 20 21 22 22 20 21 22 18 19 22 23 23 26 23 24 28 32 31 31 30 34 32 34 33 33 35 38 41 41 44 42 36 33
11 12 15 16 17 18 20 21 23 23 24 24 24 24 20 18 14 16 20 20 19 24 24 25 28 30 30 26 26 28 27 26 30 33 34 35 37 40 41 46 40 34 24
17 19 21 23 23 24 27 27 26 28 28 30 31 31 28 16 20 12 17 19 23 21 22 23 24 25 24 25 24 23 23 25 30 32 35 36 36 39 41 45 46 41 32
21 22 23 24 24 24 25 24 23 24 22 21 22 26 22 14 9 15 17 20 20 21 27 21 21 22 23 24 24 23 23 25 27 31 35 36 35 37 40 42 44 39 36
23 20 16 20 24 23 21 23 28 16 16 14 16 17 19 11 13 15 18 21 23 25 21 19 20 21 23 24 24 25 24 26 27 29 31 34 35 35 37 39 42 40 35
16 17 18 19 21 24 22 15 10 10 11 11 8 9 8 7 14 17 20 22 24 20 16 17 19 21 23 23 23 23 25 24 24 27 28 33 35 32 32 37 38 40 38
14 13 15 17 17 18 12 5 6 7 7 6 6 6 10 13 16 19 20 21 16 15 15 17 19 20 21 22 22 22 23 24 23 26 27 29 33 30 29 32 34 36 35
12 15 17 14 10 7 4 4 5 4 5 6 7 10 13 13 14 17 18 13 13 15 16 18 19 20 20 20 21 21 22 23 27 24 25 26 29 28 24 26 29 30 31
14 12 10 8 5 3 2 1 3 5 7 9 9 9 9 11 11 13 13 12 13 15 17 19 19 20 20 20 20 21 21 21 23 23 23 24 28 27 23 23 24 27 27
9 10 6 0 2 2 1 1 4 6 7 7 7 9 13 11 11 12 13 13 15 17 18 20 20 20 19 19 20 21 21 21 21 22 21 23 24 24 22 20 20 20 21
8 4 0 2 2 3 3 3 4 6 7 7 8 10 14 10 11 12 14 15 16 17 18 20 20 19 18 19 20 21 21 21 20 20 22 24 25 21 20 18 16 16 17
5 3 4 4 5 5 5 5 6 7 8 8 9 10 11 12 13 14 15 16 17 18 19 20 19 19 18 18 19 20 20 20 20 21 23 27 27 22 18 16 15 13 13
5 7 9 8 8 8 8 8 7 10 10 10 11 12 14 15 15 16 16 17 18 19 20 20 19 19 18 19 19 18 19 21 25 25 26 29 25 22 18 15 12 11 11
9 10 13 11 11 11 10 9 10 12 15 13 13 15 17 18 17 15 16 17 19 21 22 21 19 19 19 21 21 21 23 24 24 26 29 27 23 18 16 14 12 10 7
13 13 14 15 16 15 13 13 13 14 15 16 16 18 18 19 23 15 17 19 20 23 23 20 21 21 21 21 21 23 23 23 26 28 27 23 19 14 12 12 10 9 7
Wind_Direction
176 172 148 122 95 64 53 96 118 112 93 81 66 61 58 48 39 33 25 20 16 11 6 3 359 356 350 341 322 310 304 296 290 299 303 312 313 315 316 317 318 315 310
169 168 150 121 98 55 60 99 119 109 99 86 77 73 66 58 48 42 30 20 14 11 5 359 355 351 347 341 327 315 306 303 295 299 303 307 307 313 313 315 317 314 308
176 210 215 221 276 63 61 87 116 119 102 82 73 69 67 57 44 36 27 23 15 10 6 359 354 348 345 336 330 320 310 308 302 296 298 301 305 307 311 315 313 309 308
205 203 210 227 228 3 42 89 126 120 97 80 60 54 53 47 37 30 23 20 14 9 3 357 352 348 342 332 329 321 315 310 305 301 299 302 301 302 306 313 315 309 307
217 208 207 226 248 262 352 22 140 137 92 62 44 32 27 25 20 10 10 7 2 1 356 351 347 343 338 333 330 323 319 314 308 303 302 300 298 302 301 306 304 309 309
219 209 222 236 244 272 250 251 243 216 256 310 318 340 343 350 349 353 349 349 349 346 345 344 343 340 335 331 329 328 320 313 308 302 299 296 297 297 300 301 302 301 299
216 225 249 249 246 248 251 237 243 249 274 283 294 296 312 323 328 327 330 332 333 336 336 339 337 332 333 327 324 323 318 311 308 301 297 296 298 302 300 302 299 296 292
210 238 245 239 251 248 236 246 243 253 270 279 278 284 298 306 310 310 312 316 321 328 332 336 332 331 330 327 323 322 319 315 311 306 305 306 303 304 303 304 302 301 298
247 256 244 234 242 261 265 250 241 254 274 286 286 283 288 302 307 307 300 307 312 319 325 330 326 325 327 325 321 322 319 317 317 317 314 311 309 307 312 313 308 299 294
253 243 242 252 268 275 267 254 260 275 285 289 285 289 294 301 310 303 297 305 310 308 315 317 321 326 324 325 320 321 319 321 323 322 319 317 318 318 321 322 317 297 294
247 237 246 257 269 269 265 272 281 284 289 292 295 297 293 294 301 301 294 302 306 299 309 315 315 320 322 322 318 318 317 323 326 324 321 324 326 326 326 326 322 310 296
224 241 258 268 274 277 277 278 279 286 287 291 296 301 300 298 299 295 298 300 302 304 314 314 315 317 319 318 316 314 321 328 332 330 326 324 329 331 328 331 330 322 307
259 271 276 279 280 282 283 287 287 287 286 291 290 289 289 288 282 293 303 301 303 310 312 313 315 316 320 319 314 322 334 326 331 331 328 326 329 332 335 340 342 346 342
276 283 287 286 288 286 284 285 289 292 288 286 292 284 296 271 292 300 309 311 313 314 314 315 315 323 324 322 324 322 321 325 330 334 333 331 330 337 342 348 353 358 2
289 290 289 292 289 290 286 283 293 298 292 295 300 289 272 278 287 304 307 312 311 313 319 317 316 320 322 324 324 324 322 327 329 332 337 336 334 341 346 353 1 4 5
287 288 287 298 294 289 294 291 291 290 302 312 306 279 278 284 293 300 305 307 311 317 319 315 317 321 322 323 324 325 326 326 330 332 333 340 340 342 349 355 3 8 13
290 295 301 307 310 303 293 302 306 306 328 324 310 303 310 287 300 302 304 310 316 321 316 318 320 321 322 322 322 324 326 325 330 331 332 337 344 344 349 356 1 9 15
297 299 305 305 303 308 299 287 318 335 324 334 347 330 320 313 302 303 309 319 318 318 319 320 320 320 321 321 322 324 326 325 327 331 332 337 343 344 345 351 360 6 12
302 306 306 302 301 290 308 328 329 329 324 322 320 319 314 310 305 313 320 324 322 324 322 321 321 320 320 319 320 323 325 325 326 332 332 337 341 343 341 343 356 5 12
313 313 309 294 264 257 308 10 350 340 329 322 320 318 320 323 317 318 323 324 325 324 323 322 321 320 318 317 319 322 323 326 326 329 330 335 340 343 339 340 347 356 6
316 318 328 352 191 222 173 347 349 342 333 328 325 324 331 321 315 319 322 322 321 321 321 320 320 319 318 316 318 320 320 323 326 324 330 331 336 337 338 336 339 346 359
327 339 231 255 246 236 245 285 317 332 327 322 322 324 335 329 313 316 318 319 318 317 317 316 316 316 314 313 316 319 318 321 324 322 327 328 334 333 332 333 334 340 353
309 221 196 214 229 239 277 279 302 312 318 315 313 319 322 318 316 316 316 318 318 319 317 315 314 314 312 311 313 315 315 317 320 320 321 326 330 329 328 326 325 329 343
260 228 217 225 239 247 246 259 281 312 313 303 307 310 312 314 311 312 315 314 315 318 318 315 313 312 312 313 313 314 313 312 317 320 320 323 323 325 323 321 318 316 322
266 248 245 245 247 253 254 262 275 296 310 307 305 307 311 311 306 300 309 310 312 316 317 315 314 314 315 315 315 314 313 318 316 317 319 319 317 316 315 314 312 309 299
280 274 262 257 257 259 262 263 277 289 303 310 306 301 304 303 311 303 308 310 311 313 314 314 315 318 318 318 316 318 316 316 316 316 316 315 311 308 305 304 303 299 275